Regional Weather Roundup
Issued by NWS

Home | Current Version | Previous Version | Graphics & Text | Print | Product List | Glossary On
Versions: 1 2 3 4 5 6 7 8 9 10 11 12 13 14 15 16 17 18 19 20 21 22 23 24 25 26 27 28 29 30 31 32 33 34 35 36 37 38 39 40 41 42 43 44 45 46 47 48 49 50
000
ASUS43 KFSD 100702
RWRSD

WEATHER ROUNDUP FOR SOUTH DAKOTA
NATIONAL WEATHER SERVICE SIOUX FALLS SD
100 AM CST SUN DEC 10 2017

NOTE: "FAIR" INDICATES FEW OR NO CLOUDS BELOW 12,000 FEET WITH NO
SIGNIFICANT WEATHER AND/OR OBSTRUCTIONS TO VISIBILITY.


SDZ001>005-009-010-012>017-100800-
NORTHWEST AND NORTH CENTRAL SOUTH DAKOTA

CITY           SKY/WX    TMP DP  RH WIND       PRES   REMARKS
BUFFALO          N/A     40  16  37 W18       30.10S
FAITH            N/A     38  18  44 W15       30.09R
MOBRIDGE       CLEAR     43  25  49 NW18G25   29.96F
$$

SDZ012>016-024>037-041>051-057-063-072>074-100800-
SOUTHWEST AND SOUTH CENTRAL SOUTH DAKOTA

CITY           SKY/WX    TMP DP  RH WIND       PRES   REMARKS
RAPID CTY ARPT CLOUDY    50   5  16 NW21G30   30.19S
PIERRE         CLEAR     42  22  44 W16       30.04S
CUSTER         CLOUDY    44  -1  15 NW14G24   30.24S
ELLSWORTH AFB  CLEAR     50   6  16 NW17      30.18S
PHILIP         CLEAR     45  17  32 NW20G26   30.13S
PINE RIDGE     CLEAR     31  18  58 SW8       30.25S WCI  23
SPEARFISH      FAIR      45   9  23 W14       30.25F
WINNER         FAIR      44  20  38 W15       30.07S
$$

SDZ004>011-016>023-039-040-100800-
NORTHEAST SOUTH DAKOTA

CITY           SKY/WX    TMP DP  RH WIND       PRES   REMARKS
ABERDEEN       CLOUDY    36  28  73 NW16      29.95R
WATERTOWN      CLOUDY    33  26  75 NW16      29.87R WCI  23
BROOKINGS      CLEAR     30  24  78 NW13      29.89R WCI  20
SISSETON         N/A     35  26  69 NW22      29.88R WCI  23
$$

SDZ017-020-022-023-036>040-048>070-100800-
SOUTHEAST SOUTH DAKOTA

CITY           SKY/WX    TMP DP  RH WIND       PRES   REMARKS
SIOUX FALLS    CLOUDY    32  25  75 NW13      29.91S WCI  22
HURON          CLOUDY    33  27  78 NW14      29.96R WCI  23
CHAMBERLAIN    CLEAR     40  25  54 W8        30.02F
MITCHELL       CLOUDY    38  26  62 W17       29.98R
YANKTON        CLOUDY    38  25  59 W17       29.96F
$$

ABBREVIATIONS USED IN REMARKS
   TC - TEMPERATURE IN CELSIUS
  WCI - WIND CHILL INDEX
   HX - HEAT INDEX
  VSB - VISIBILITY





USA.gov is the U.S. government's official web portal to all federal, state and local government web resources and services.